Regional Weather Roundup
Issued by NWS

Home | Current Version | Previous Version | Text Only | Print | Product List | Glossary On
Versions: 1 2 3 4 5 6 7 8 9 10 11 12 13 14 15 16 17 18 19 20 21 22 23 24 25 26 27
000
ASPQ40 PGUM 300212
RWRPQ
WEATHER ROUNDUP FOR THE MARIANAS AND MICRONESIA
NATIONAL WEATHER SERVICE TIYAN GU
1200 PM CHST THU MAR 30 2017

GUZ001>004-300300-
MARIANA ISLANDS-

CITY           SKY/WX    TMP DP  RH WIND       PRES   REMARKS
GUAM AIRPORT   PTSUNNY   86  75  70 E23G30    29.98F HX  95
ANDERSEN AFB   PTSUNNY   84  73  70 E21       30.00F HX  91
ROTA AIRPORT   PTSUNNY   82  73  74 NE15G26   30.00F
TINIAN AP      PTSUNNY   82  73  74 NE22      29.98F
SAIPAN AP      PTSUNNY   86  73  66 NE22      29.99F HX  93

$$

PMZ161-300300-
REPUBLIC OF PALAU-

CITY           SKY/WX    TMP DP  RH WIND       PRES   REMARKS
KOROR AP       CLOUDY    82  75  78 NE8G18    29.91F
KOROR WSO      CLOUDY    86  77  74 NE10      29.92F HX  97

$$

PMZ171>174-300300-
FEDERATED STATES OF MICRONESIA-

CITY           SKY/WX    TMP DP  RH WIND       PRES   REMARKS
YAP AIRPORT    CLOUDY    84  77  79 E9        29.93F HX  94
CHUUK AP       CLOUDY    88  77  70 NE9       29.87F HX 100
POHNPEI AP     CLOUDY    88  77  70 E12       29.88F HX 100
POHNPEI WSO    CLOUDY    86  72  62 NE7       29.91F HX  92
KOSRAE AP      NOT AVBL

$$

PMZ181-300300-
REPUBLIC OF THE MARSHALL ISLANDS-

CITY           SKY/WX    TMP DP  RH WIND       PRES   REMARKS
KWAJALEIN AP   SUNNY     88  70  55 E16       29.86F HX  92
MAJURO AP      NOT AVBL
MAJURO WSO     PTSUNNY   84  77  79 NE10      29.81F HX  94

$$





USA.gov is the U.S. government's official web portal to all federal, state and local government web resources and services.